Wind_Speed
8 8 8 8 8 8 8 9 9 9 10 10 9 9 9 9 10 10 10 10 10 10 10 10 10 10 9 9 9 9 9 9 9 9 8 8 9 9 10 11 11 12 13
8 8 8 7 7 7 8 9 8 9 10 10 10 10 10 10 10 10 10 9 9 9 10 10 9 9 9 9 9 9 9 9 9 9 9 8 9 9 11 11 12 12 12
8 8 8 8 8 7 7 8 8 9 10 9 10 10 10 9 9 10 9 8 9 9 9 9 9 9 9 9 9 9 8 8 9 9 9 9 9 10 11 11 12 12 13
8 8 8 8 9 9 8 9 8 8 9 9 10 9 10 9 9 9 9 9 9 8 8 8 8 9 9 9 9 9 8 8 8 9 9 9 9 10 11 11 12 13 13
9 9 9 9 10 9 9 9 9 9 9 9 9 10 10 10 9 9 9 9 9 9 8 8 8 8 8 8 8 8 8 8 8 9 9 9 10 10 11 12 12 12 13
10 10 10 10 10 10 10 10 9 10 10 10 10 10 10 10 10 9 9 9 9 9 9 9 9 8 8 8 8 8 8 8 8 9 9 9 10 10 11 12 12 12 12
9 9 9 10 10 11 11 11 10 10 10 11 10 10 10 10 10 10 10 10 9 9 9 9 9 8 8 8 8 8 8 9 9 9 9 10 10 10 11 11 11 11 11
9 8 9 9 10 11 12 11 11 11 12 12 11 11 10 11 10 10 11 10 11 10 9 9 9 9 9 9 9 9 9 9 9 10 10 10 10 10 11 11 11 10 10
9 9 10 10 11 11 11 11 12 12 12 12 12 11 11 11 11 11 11 11 11 11 11 10 10 10 10 9 9 9 9 9 9 9 10 10 10 10 10 10 10 10 10
10 10 10 10 11 11 11 12 12 11 11 12 12 12 12 11 11 11 11 11 12 12 12 12 11 11 11 10 10 9 9 9 9 9 10 10 10 10 10 10 10 10 10
11 10 10 11 11 11 11 11 11 11 12 13 13 12 12 12 11 12 12 12 13 13 13 12 12 12 11 11 11 10 10 10 10 9 9 10 10 9 9 10 10 10 10
11 12 12 12 12 12 12 12 12 12 12 12 13 13 12 12 12 12 12 13 13 14 14 13 13 13 12 12 12 11 11 11 10 9 10 10 9 10 9 10 9 10 10
12 13 13 13 13 13 13 13 12 12 12 12 13 14 14 13 14 13 13 13 14 14 14 14 14 13 13 12 12 12 12 11 10 10 10 10 10 10 10 11 10 10 11
13 14 14 14 14 14 14 14 14 14 14 13 14 14 15 15 15 15 15 15 15 15 15 15 14 14 14 14 13 13 13 12 12 12 12 12 11 11 12 12 12 12 12
14 15 14 15 15 15 15 16 15 15 15 15 15 15 15 16 16 16 16 16 16 16 15 16 16 15 15 15 14 14 14 14 14 13 13 13 13 13 13 13 13 13 13
15 16 16 16 16 17 17 17 17 17 16 16 16 16 16 17 17 17 17 16 17 17 17 16 17 16 16 15 15 15 15 15 15 15 15 15 15 14 14 14 14 15 15
17 17 18 18 17 17 18 18 18 18 18 18 18 18 18 17 17 18 17 17 17 17 18 18 17 18 17 17 17 16 16 16 16 16 15 15 15 16 17 16 16 16 16
18 18 18 19 19 19 19 20 20 20 19 19 19 19 19 19 19 18 19 18 18 18 18 18 18 18 19 19 18 18 18 18 18 17 17 17 17 17 18 17 17 17 17
20 20 20 20 20 21 21 21 21 21 20 20 20 20 20 20 20 20 20 19 19 19 19 18 19 19 19 19 19 19 19 18 18 18 18 18 18 18 18 18 18 17 18
20 20 21 21 21 22 22 22 22 22 21 21 21 21 21 21 21 21 21 21 20 19 20 20 20 20 20 19 19 19 18 18 18 19 19 19 19 19 18 18 19 19 19
20 21 21 21 22 22 22 22 22 22 22 22 22 22 22 21 21 22 22 22 22 21 21 21 21 21 21 20 20 20 19 19 19 19 19 19 19 19 20 20 20 20 20
21 22 22 22 23 23 22 22 22 23 23 23 22 22 22 22 22 23 23 23 23 23 23 22 22 22 22 21 21 21 20 20 19 19 19 19 19 20 20 20 21 21 21
22 22 23 23 23 24 24 23 23 23 23 23 23 23 23 23 22 23 23 24 24 24 24 24 23 23 23 22 22 22 21 21 20 20 20 20 21 21 21 21 21 21 21
22 23 23 23 24 24 24 23 23 23 24 24 24 24 24 24 23 24 24 24 24 25 24 24 25 24 23 23 23 23 23 22 22 22 22 22 22 22 22 22 22 21 21
23 23 24 24 24 24 24 24 23 23 23 24 24 24 24 24 24 24 25 25 25 25 26 26 25 26 26 25 25 25 25 24 24 24 24 24 23 23 23 23 23 22 22
23 23 23 23 23 24 24 24 23 24 24 24 24 25 25 25 26 26 26 26 25 26 26 26 27 27 28 28 27 26 27 26 26 25 25 25 25 25 24 24 24 24 23
Wind_Direction
285 279 275 273 272 269 265 265 265 262 262 260 259 258 258 257 259 261 261 255 258 261 262 262 263 262 264 265 263 266 267 263 258 251 247 241 242 245 249 251 250 250 250
283 278 273 270 269 270 266 262 265 265 261 261 258 257 256 258 262 261 254 253 260 263 263 258 261 265 264 266 265 264 264 259 257 254 248 248 248 251 253 255 252 252 253
281 278 274 270 269 272 271 265 264 267 264 260 257 255 255 259 262 259 257 254 257 259 257 256 260 266 266 265 265 264 261 260 258 256 251 249 251 253 256 256 255 255 256
278 272 271 267 270 274 272 269 268 269 265 258 255 254 254 258 261 257 254 253 256 254 251 253 262 270 268 263 262 264 261 258 258 257 253 253 254 256 259 259 259 258 258
274 269 267 267 268 271 272 269 266 265 265 259 256 256 254 258 260 254 253 255 256 256 256 259 261 262 265 263 259 262 263 262 258 260 257 258 257 260 263 263 263 263 262
273 267 265 263 267 270 271 271 270 267 267 264 258 253 255 260 262 258 259 258 256 261 259 260 263 259 263 268 266 267 267 266 264 264 263 263 263 265 268 265 264 265 264
277 270 262 261 266 270 268 269 270 268 267 266 261 256 257 259 262 262 261 255 255 260 260 263 261 261 264 267 270 268 267 266 267 265 265 265 265 268 268 266 265 265 265
278 269 264 264 266 267 265 267 267 268 267 265 260 258 258 260 263 264 260 255 253 258 261 263 261 261 263 265 267 270 270 268 268 262 260 262 264 266 266 263 263 265 267
274 266 263 264 268 269 268 266 265 263 263 261 260 258 257 263 264 261 260 257 255 258 258 259 261 262 262 262 265 269 268 265 265 261 260 262 264 265 261 259 262 267 269
277 272 269 269 268 269 268 265 265 263 262 261 262 260 258 261 264 266 263 259 258 259 259 260 261 263 262 261 266 269 270 269 267 262 263 265 268 266 262 260 265 268 271
278 274 273 273 270 267 265 267 265 265 263 263 261 260 260 259 262 264 263 261 258 256 257 258 258 262 263 264 269 271 270 267 270 267 268 267 265 264 263 263 267 269 270
275 274 272 274 272 268 264 267 267 265 263 262 260 259 260 261 261 265 265 262 259 258 257 255 256 259 261 264 268 269 269 270 270 268 269 268 265 264 263 264 268 270 273
271 272 271 271 271 269 266 266 266 266 263 259 259 259 260 263 261 264 267 264 259 258 257 256 256 257 261 263 265 267 265 265 266 267 266 265 263 261 262 266 268 273 276
272 272 269 268 268 268 265 263 263 265 264 260 261 263 264 265 263 265 267 264 262 261 259 256 255 258 260 261 262 263 264 263 263 263 263 263 263 261 261 265 270 271 274
274 273 273 268 267 265 262 263 265 265 264 263 262 261 265 267 266 264 265 263 260 259 259 258 257 259 258 258 259 260 263 263 262 261 262 262 262 263 264 268 271 272 274
271 272 273 275 271 265 263 262 264 264 263 263 261 262 265 266 265 265 264 263 261 258 256 258 257 257 258 258 259 262 261 262 261 261 261 261 262 265 267 270 273 274 274
271 271 271 273 273 268 266 264 264 264 263 263 263 263 265 265 265 264 265 264 262 259 258 257 257 256 257 259 261 262 262 262 262 260 261 261 264 267 270 271 273 274 276
274 273 272 272 273 272 268 266 265 263 262 261 262 263 264 263 263 264 265 264 263 261 259 259 259 259 259 260 262 261 260 261 260 260 261 262 264 267 269 270 271 273 276
275 272 271 270 270 270 268 266 265 261 261 261 261 263 265 264 263 264 263 263 263 262 259 260 261 260 259 259 261 262 261 261 261 260 261 262 264 267 269 270 270 271 275
276 274 272 270 270 269 269 268 266 261 261 261 262 264 264 263 263 263 262 261 261 261 260 260 260 260 261 262 262 263 262 262 263 264 265 265 267 267 268 269 269 270 273
277 276 274 272 270 269 269 269 265 263 263 264 264 265 264 263 263 263 261 260 260 261 260 260 260 260 262 263 262 263 263 264 264 265 266 266 268 268 270 271 270 271 272
278 277 274 272 271 269 268 267 265 263 263 264 264 264 263 263 262 262 262 261 261 260 260 260 259 259 260 261 261 262 262 263 263 264 265 266 267 268 269 270 270 271 272
279 277 274 272 270 269 268 268 266 262 262 263 264 263 263 263 262 262 262 261 260 261 261 260 260 259 258 259 260 261 262 262 263 264 264 266 268 268 269 270 271 272 272
280 278 275 271 269 268 268 269 268 265 264 262 262 262 262 262 263 263 262 261 261 260 261 260 259 258 258 259 261 261 262 262 263 264 265 267 269 270 270 270 270 269 270
280 279 276 274 271 269 268 267 266 265 264 263 262 262 262 263 263 263 264 264 263 262 262 261 260 260 259 259 260 262 262 263 263 264 266 268 269 269 269 270 269 268 268
282 280 277 275 273 270 268 267 266 266 264 263 263 263 262 263 264 265 266 265 264 263 263 262 262 262 262 261 261 263 264 264 265 265 266 267 268 268 267 268 268 267 268
Height
5837 5837 5837 5837 5837 5836 5836 5836 5836 5836 5836 5836 5837 5837 5837 5837 5838 5838 5837 5837 5838 5838 5838 5839 5839 5840 5840 5840 5840 5840 5840 5840 5840 5840 5839 5839 5841 5842 5843 5844 5845 5846 5847
5835 5835 5835 5835 5835 5834 5834 5834 5834 5834 5834 5834 5834 5835 5835 5835 5835 5835 5835 5835 5835 5836 5836 5837 5837 5838 5838 5837 5837 5838 5838 5838 5838 5838 5838 5839 5839 5840 5841 5842 5843 5843 5844
5833 5833 5833 5833 5833 5832 5832 5832 5832 5832 5832 5832 5832 5832 5833 5833 5833 5833 5833 5833 5833 5834 5834 5835 5835 5835 5835 5835 5835 5836 5836 5836 5836 5836 5837 5837 5838 5838 5839 5839 5840 5840 5841
5830 5830 5830 5831 5831 5830 5830 5830 5830 5830 5830 5830 5830 5830 5831 5831 5831 5831 5831 5831 5831 5832 5832 5833 5833 5833 5833 5833 5833 5834 5834 5834 5834 5834 5835 5835 5836 5836 5837 5837 5837 5837 5838
5828 5828 5828 5828 5828 5828 5828 5828 5828 5828 5828 5828 5828 5828 5828 5829 5829 5829 5829 5830 5830 5830 5831 5831 5831 5831 5831 5831 5831 5832 5832 5832 5832 5832 5832 5833 5833 5833 5834 5834 5834 5834 5834
5825 5825 5825 5825 5826 5826 5826 5826 5826 5825 5825 5825 5825 5826 5826 5826 5827 5827 5827 5828 5828 5828 5829 5829 5829 5829 5829 5829 5830 5830 5830 5830 5830 5830 5830 5830 5831 5831 5831 5831 5831 5831 5831
5823 5822 5822 5823 5823 5823 5823 5823 5823 5823 5823 5823 5823 5823 5824 5824 5825 5825 5825 5826 5826 5826 5827 5827 5827 5827 5827 5828 5828 5828 5828 5828 5828 5827 5828 5828 5828 5828 5828 5828 5828 5828 5828
5820 5820 5820 5820 5820 5820 5820 5820 5820 5820 5820 5820 5821 5821 5822 5823 5822 5823 5823 5823 5824 5824 5825 5825 5825 5825 5826 5826 5826 5826 5826 5826 5825 5825 5826 5826 5826 5826 5826 5826 5826 5826 5826
5817 5817 5817 5817 5817 5817 5817 5817 5817 5817 5817 5818 5818 5819 5819 5820 5820 5820 5821 5821 5822 5822 5822 5823 5823 5823 5824 5824 5824 5823 5823 5823 5823 5823 5823 5823 5823 5823 5824 5824 5824 5823 5823
5814 5814 5814 5814 5814 5814 5814 5814 5814 5814 5815 5815 5815 5816 5816 5817 5817 5818 5818 5818 5819 5819 5820 5820 5820 5821 5821 5821 5821 5821 5821 5821 5821 5821 5821 5821 5821 5821 5821 5821 5821 5821 5821
5811 5811 5811 5811 5811 5811 5811 5811 5811 5811 5812 5812 5812 5813 5813 5814 5814 5815 5815 5816 5816 5816 5817 5817 5817 5818 5818 5818 5819 5818 5818 5818 5818 5818 5818 5818 5819 5819 5819 5819 5819 5819 5818
5808 5808 5808 5808 5808 5808 5808 5808 5808 5808 5809 5809 5809 5810 5810 5811 5811 5812 5812 5812 5813 5813 5813 5814 5814 5815 5815 5816 5816 5816 5816 5816 5816 5816 5816 5816 5816 5816 5816 5816 5816 5816 5816
5804 5804 5804 5804 5804 5804 5804 5805 5805 5805 5805 5806 5806 5807 5807 5807 5808 5808 5808 5809 5809 5810 5810 5811 5811 5812 5812 5813 5813 5813 5813 5813 5813 5813 5814 5814 5814 5814 5814 5814 5814 5814 5813
5800 5800 5800 5800 5800 5800 5800 5801 5801 5801 5801 5802 5802 5803 5803 5804 5804 5804 5805 5805 5805 5806 5807 5807 5808 5808 5809 5809 5810 5810 5810 5810 5811 5811 5811 5811 5811 5811 5811 5811 5811 5811 5811
5796 5796 5795 5795 5795 5796 5796 5796 5797 5797 5797 5798 5798 5799 5799 5799 5800 5800 5800 5801 5802 5802 5803 5803 5804 5804 5805 5805 5806 5806 5807 5807 5807 5807 5807 5808 5808 5808 5808 5808 5808 5808 5807
5791 5791 5791 5791 5791 5791 5791 5791 5792 5792 5793 5793 5794 5794 5795 5795 5795 5795 5795 5796 5796 5797 5798 5799 5800 5800 5801 5801 5802 5802 5803 5803 5803 5804 5804 5804 5805 5805 5805 5805 5804 5804 5804
5786 5786 5786 5786 5786 5786 5786 5786 5787 5787 5788 5788 5789 5789 5790 5790 5790 5790 5791 5791 5792 5792 5793 5794 5795 5796 5796 5797 5798 5798 5798 5799 5799 5800 5800 5800 5801 5801 5801 5801 5800 5800 5800
5781 5781 5781 5781 5781 5780 5781 5781 5781 5781 5782 5783 5783 5783 5784 5784 5785 5785 5785 5786 5787 5787 5789 5789 5790 5791 5792 5792 5793 5793 5794 5794 5795 5795 5796 5796 5796 5796 5796 5796 5796 5795 5795
5775 5775 5775 5775 5775 5775 5775 5775 5775 5775 5776 5776 5777 5777 5778 5778 5779 5779 5780 5780 5781 5782 5783 5784 5785 5785 5786 5787 5788 5789 5789 5789 5790 5790 5791 5791 5791 5791 5791 5791 5791 5791 5790
5769 5769 5768 5768 5768 5768 5768 5768 5769 5769 5770 5770 5771 5771 5772 5772 5772 5773 5774 5774 5775 5776 5777 5778 5779 5780 5781 5782 5782 5783 5784 5784 5785 5785 5785 5785 5786 5786 5785 5786 5785 5785 5785
5763 5762 5762 5762 5762 5762 5762 5761 5762 5762 5763 5763 5764 5764 5765 5765 5766 5766 5767 5768 5769 5770 5771 5772 5773 5774 5775 5776 5777 5777 5778 5779 5779 5779 5780 5780 5780 5780 5780 5780 5780 5779 5779
5756 5755 5755 5755 5755 5755 5755 5755 5755 5755 5755 5756 5757 5757 5758 5758 5759 5759 5760 5761 5762 5763 5765 5765 5766 5767 5769 5770 5771 5771 5772 5773 5774 5774 5774 5774 5774 5774 5774 5774 5774 5773 5773
5749 5748 5748 5747 5747 5747 5747 5748 5748 5748 5748 5749 5750 5750 5751 5751 5752 5752 5753 5754 5755 5756 5758 5759 5760 5761 5762 5763 5764 5765 5766 5766 5767 5768 5768 5768 5768 5768 5768 5767 5767 5767 5767
5742 5741 5740 5740 5740 5740 5740 5740 5740 5741 5741 5741 5742 5743 5744 5744 5745 5745 5746 5747 5748 5749 5750 5751 5753 5754 5755 5756 5757 5758 5759 5759 5760 5761 5761 5762 5761 5761 5761 5760 5760 5760 5760
5735 5734 5733 5732 5732 5732 5732 5732 5733 5733 5734 5734 5735 5736 5736 5737 5738 5738 5739 5740 5740 5741 5742 5743 5745 5746 5747 5748 5749 5750 5751 5752 5753 5753 5754 5754 5754 5754 5754 5753 5753 5753 5753
5728 5726 5725 5724 5724 5724 5724 5724 5725 5725 5726 5726 5727 5728 5729 5729 5730 5730 5731 5732 5733 5733 5734 5735 5736 5738 5738 5740 5741 5742 5743 5744 5745 5746 5746 5746 5746 5746 5747 5746 5746 5746 5746